�������l�o���
Date,Time,MP-1(��Sv/h),MP-2(��Sv/h),MP-3(��Sv/h),MP-4(��Sv/h),MP-5(��Sv/h),MP-6(��Sv/h),MP-7(��Sv/h),MP-8(��Sv/h),����,����(m/s),���J
2017/08/06,00:00,0.978,1.536,1.017,1.826,1.267,0.527,0.958,0.881,�k,0.9,�L
2017/08/06,00:10,0.978,1.538,1.018,1.824,1.267,0.525,0.957,0.880,�k,0.8,�L
2017/08/06,00:20,0.980,1.536,1.020,1.825,1.268,0.525,0.957,0.881,�k�k��,1.1,�L
2017/08/06,00:30,0.979,1.534,1.018,1.825,1.267,0.525,0.957,0.883,�k��,0.9,�L
2017/08/06,00:40,0.981,1.535,1.019,1.826,1.267,0.525,0.958,0.881,�k,0.6,�L
2017/08/06,00:50,0.979,1.536,1.016,1.823,1.267,0.525,0.955,0.880,�k�k��,0.6,�L
2017/08/06,01:00,0.979,1.536,1.018,1.827,1.267,0.525,0.955,0.880,�k,0.8,�L
2017/08/06,01:10,0.978,1.536,1.016,1.825,1.268,0.526,0.956,0.881,�k,1.4,�L
2017/08/06,01:20,0.978,1.536,1.019,1.825,1.269,0.524,0.955,0.882,-,CALM,��
2017/08/06,01:30,0.980,1.535,1.020,1.826,1.265,0.525,0.958,0.881,�k��,1.1,��
2017/08/06,01:40,0.977,1.534,1.018,1.824,1.269,0.525,0.957,0.882,�k�k��,1.4,��
2017/08/06,01:50,0.977,1.534,1.020,1.824,1.266,0.525,0.959,0.881,�k��,0.9,��
2017/08/06,02:00,0.978,1.535,1.019,1.829,1.266,0.524,0.958,0.882,�k��,1.4,�L
2017/08/06,02:10,0.978,1.534,1.019,1.827,1.266,0.525,0.956,0.882,�k��,1.7,�L
2017/08/06,02:20,0.977,1.533,1.019,1.825,1.268,0.525,0.957,0.884,���k��,1.7,��
2017/08/06,02:30,0.978,1.537,1.018,1.824,1.268,0.523,0.957,0.881,���k��,2.2,�L
2017/08/06,02:40,0.978,1.535,1.019,1.825,1.268,0.526,0.955,0.881,��,1.7,��
2017/08/06,02:50,0.978,1.537,1.016,1.824,1.265,0.523,0.957,0.880,���쐼,1.5,��
2017/08/06,03:00,0.977,1.535,1.016,1.826,1.265,0.524,0.956,0.880,��쐼,1.2,��
2017/08/06,03:10,0.978,1.535,1.018,1.825,1.268,0.525,0.956,0.883,��쓌,1.4,��
2017/08/06,03:20,0.976,1.535,1.016,1.823,1.266,0.525,0.955,0.883,��,1.2,��
2017/08/06,03:30,0.977,1.534,1.020,1.824,1.267,0.524,0.957,0.881,-,CALM,��
2017/08/06,03:40,0.977,1.535,1.018,1.827,1.267,0.524,0.957,0.881,�k�k��,1.4,��
2017/08/06,03:50,0.979,1.533,1.019,1.826,1.267,0.525,0.956,0.881,�k�k��,1.2,��
2017/08/06,04:00,0.978,1.535,1.017,1.826,1.269,0.524,0.956,0.882,�k,1.4,��
2017/08/06,04:10,0.978,1.535,1.020,1.826,1.266,0.526,0.957,0.881,�k�k��,0.9,��
2017/08/06,04:20,0.980,1.535,1.019,1.828,1.268,0.524,0.955,0.880,�k�k��,1.2,��
2017/08/06,04:30,0.977,1.537,1.018,1.824,1.269,0.524,0.956,0.882,�k,0.9,��
2017/08/06,04:40,0.979,1.533,1.019,1.825,1.267,0.525,0.956,0.883,�k��,0.9,��
2017/08/06,04:50,0.977,1.535,1.018,1.825,1.268,0.525,0.955,0.882,�k�k��,0.9,��
2017/08/06,05:00,0.977,1.532,1.019,1.826,1.264,0.524,0.956,0.881,-,CALM,��
2017/08/06,05:10,0.977,1.535,1.020,1.824,1.267,0.525,0.955,0.881,���k��,0.8,��
2017/08/06,05:20,0.976,1.535,1.019,1.824,1.266,0.525,0.956,0.881,��,0.9,��
2017/08/06,05:30,0.977,1.533,1.018,1.825,1.267,0.525,0.956,0.882,���k��,0.6,��
2017/08/06,05:40,0.976,1.536,1.018,1.824,1.267,0.523,0.955,0.881,-,CALM,��
2017/08/06,05:50,0.979,1.535,1.019,1.825,1.268,0.524,0.956,0.880,-,CALM,��
2017/08/06,06:00,0.979,1.534,1.018,1.823,1.266,0.524,0.957,0.883,���k��,0.6,��
2017/08/06,06:10,0.978,1.535,1.019,1.824,1.269,0.524,0.958,0.883,-,CALM,��
2017/08/06,06:20,0.978,1.536,1.018,1.827,1.268,0.525,0.956,0.881,-,CALM,��
2017/08/06,06:30,0.978,1.534,1.017,1.827,1.267,0.524,0.954,0.881,��,0.6,��
2017/08/06,06:40,0.980,1.534,1.019,1.826,1.265,0.526,0.954,0.881,���k��,0.8,��
2017/08/06,06:50,0.977,1.534,1.019,1.824,1.267,0.522,0.958,0.882,-,CALM,��
2017/08/06,07:00,0.978,1.532,1.017,1.824,1.266,0.523,0.957,0.882,��쐼,0.6,��
2017/08/06,07:10,0.978,1.537,1.019,1.825,1.265,0.521,0.957,0.880,-,CALM,��
2017/08/06,07:20,0.978,1.535,1.020,1.823,1.266,0.521,0.957,0.882,-,CALM,��
2017/08/06,07:30,0.978,1.534,1.018,1.826,1.265,0.522,0.957,0.880,�k�k��,0.9,��
2017/08/06,07:40,0.976,1.534,1.020,1.825,1.268,0.524,0.958,0.881,��,0.8,��
2017/08/06,07:50,0.978,1.535,1.019,1.826,1.268,0.524,0.956,0.881,���쓌,1.1,��
2017/08/06,08:00,0.977,1.534,1.017,1.827,1.266,0.524,0.956,0.881,���쓌,0.9,��
2017/08/06,08:10,0.976,1.535,1.022,1.826,1.267,0.523,0.956,0.881,���쓌,1.2,��
2017/08/06,08:20,0.978,1.535,1.020,1.825,1.269,0.523,0.957,0.881,-,CALM,��
2017/08/06,08:30,0.976,1.535,1.019,1.829,1.268,0.525,0.956,0.880,��,0.8,��
2017/08/06,08:40,0.979,1.534,1.019,1.829,1.268,0.523,0.956,0.881,��,1.1,��
2017/08/06,08:50,0.978,1.538,1.019,1.826,1.270,0.523,0.956,0.878,��,1.2,��
2017/08/06,09:00,0.979,1.538,1.019,1.829,1.271,0.522,0.954,0.881,���k��,1.9,��
2017/08/06,09:10,0.980,1.537,1.018,1.826,1.267,0.523,0.955,0.878,���k��,1.4,��
2017/08/06,09:20,0.980,1.536,1.019,1.826,1.271,0.524,0.955,0.879,��,1.4,��
2017/08/06,09:30,0.979,1.539,1.017,1.828,1.270,0.524,0.956,0.879,��,1.5,��
2017/08/06,09:40,0.980,1.539,1.018,1.830,1.271,0.524,0.957,0.879,��,1.9,��
2017/08/06,09:50,0.981,1.535,1.018,1.831,1.270,0.524,0.959,0.880,��,1.7,��
2017/08/06,10:00,0.982,1.540,1.019,1.831,1.272,0.525,0.958,0.879,��,2.5,��
2017/08/06,10:10,0.981,1.543,1.018,1.830,1.270,0.524,0.958,0.881,��,2.9,��
2017/08/06,10:20,0.983,1.542,1.021,1.828,1.272,0.524,0.957,0.879,���쓌,3.0,��
2017/08/06,10:30,0.983,1.538,1.023,1.830,1.272,0.525,0.959,0.880,���쓌,3.3,��
2017/08/06,10:40,0.982,1.543,1.018,1.830,1.274,0.524,0.960,0.879,���쓌,3.1,��
2017/08/06,10:50,0.985,1.544,1.020,1.827,1.274,0.525,0.958,0.881,�쓌,3.4,��
2017/08/06,11:00,0.984,1.543,1.022,1.826,1.272,0.525,0.960,0.880,���쓌,3.2,��
2017/08/06,11:10,0.983,1.544,1.019,1.831,1.273,0.526,0.959,0.880,���쓌,2.6,��
2017/08/06,11:20,0.985,1.544,1.021,1.827,1.278,0.525,0.958,0.882,���쓌,3.1,��
2017/08/06,11:30,0.984,1.544,1.023,1.830,1.277,0.528,0.959,0.880,���쓌,2.8,��
2017/08/06,11:40,0.985,1.546,1.021,1.829,1.275,0.526,0.959,0.880,���쓌,3.7,��
2017/08/06,11:50,0.985,1.546,1.022,1.830,1.278,0.525,0.958,0.882,���쓌,3.9,��
2017/08/06,12:00,0.987,1.548,1.023,1.829,1.278,0.526,0.959,0.881,���쓌,4.1,��
2017/08/06,12:10,0.985,1.544,1.024,1.831,1.278,0.527,0.958,0.883,���쓌,3.9,��
2017/08/06,12:20,0.986,1.548,1.024,1.833,1.281,0.525,0.959,0.882,���쓌,3.4,��
2017/08/06,12:30,0.986,1.549,1.026,1.831,1.281,0.528,0.962,0.881,���쓌,3.3,��
2017/08/06,12:40,0.985,1.548,1.027,1.830,1.282,0.527,0.960,0.881,���쓌,3.2,��
2017/08/06,12:50,0.987,1.549,1.023,1.831,1.281,0.526,0.960,0.882,���쓌,3.3,��
2017/08/06,13:00,0.989,1.547,1.024,1.833,1.282,0.527,0.959,0.882,�쓌,3.4,��
2017/08/06,13:10,0.988,1.550,1.028,1.831,1.282,0.528,0.959,0.882,�쓌,2.9,��
2017/08/06,13:20,0.988,1.551,1.027,1.833,1.282,0.527,0.961,0.883,�쓌,2.8,��
2017/08/06,13:30,0.987,1.550,1.026,1.834,1.283,0.527,0.962,0.882,���쓌,2.9,��
2017/08/06,13:40,0.988,1.551,1.027,1.833,1.285,0.526,0.962,0.882,���쓌,3.6,��
2017/08/06,13:50,0.986,1.549,1.026,1.831,1.286,0.527,0.961,0.882,���쓌,3.7,��
2017/08/06,14:00,0.987,1.551,1.025,1.833,1.286,0.528,0.959,0.882,��,3.7,��
2017/08/06,14:10,0.988,1.552,1.025,1.833,1.283,0.527,0.962,0.883,��,3.6,��
2017/08/06,14:20,0.988,1.551,1.028,1.833,1.285,0.526,0.960,0.883,��,3.7,��
2017/08/06,14:30,0.988,1.550,1.026,1.835,1.285,0.528,0.961,0.883,��,3.2,��
2017/08/06,14:40,0.988,1.548,1.029,1.832,1.285,0.526,0.960,0.882,��,3.7,��
2017/08/06,14:50,0.990,1.550,1.026,1.834,1.286,0.527,0.960,0.884,��,3.1,��
2017/08/06,15:00,0.989,1.552,1.026,1.833,1.285,0.527,0.960,0.883,��,3.5,��
2017/08/06,15:10,0.988,1.550,1.027,1.833,1.285,0.527,0.960,0.884,���쓌,3.7,��
2017/08/06,15:20,0.986,1.550,1.027,1.836,1.286,0.527,0.960,0.882,���쓌,2.6,��
2017/08/06,15:30,0.990,1.553,1.026,1.834,1.285,0.526,0.961,0.883,���쓌,2.6,��
2017/08/06,15:40,0.991,1.551,1.028,1.836,1.285,0.525,0.960,0.883,��,3.3,��
2017/08/06,15:50,0.991,1.550,1.025,1.838,1.285,0.526,0.960,0.881,���쓌,3.7,��
2017/08/06,16:00,0.989,1.551,1.027,1.837,1.286,0.527,0.960,0.881,���쓌,3.4,��
2017/08/06,16:10,0.990,1.549,1.026,1.836,1.284,0.527,0.960,0.881,���쓌,3.3,��
2017/08/06,16:20,0.990,1.550,1.025,1.837,1.282,0.525,0.959,0.882,���쓌,3.1,��
2017/08/06,16:30,0.988,1.551,1.024,1.836,1.284,0.526,0.960,0.879,���쓌,3.9,��
2017/08/06,16:40,0.989,1.550,1.027,1.839,1.284,0.527,0.960,0.883,�쓌,3.5,��
2017/08/06,16:50,0.991,1.551,1.028,1.835,1.284,0.525,0.958,0.882,���쓌,3.8,��
2017/08/06,17:00,0.992,1.547,1.027,1.837,1.288,0.526,0.960,0.883,�쓌,4.6,��
2017/08/06,17:10,0.990,1.550,1.026,1.835,1.288,0.528,0.960,0.882,�쓌,4.1,��
2017/08/06,17:20,0.990,1.550,1.028,1.835,1.287,0.526,0.962,0.883,�쓌,4.1,��
2017/08/06,17:30,0.991,1.554,1.029,1.835,1.285,0.528,0.960,0.882,�쓌,3.4,��
2017/08/06,17:40,0.992,1.550,1.029,1.834,1.286,0.529,0.960,0.883,�쓌,3.4,��
2017/08/06,17:50,0.989,1.550,1.028,1.837,1.286,0.528,0.960,0.883,��쓌,3.4,��
2017/08/06,18:00,0.986,1.551,1.027,1.835,1.284,0.530,0.961,0.882,��쓌,2.8,��
2017/08/06,18:10,0.989,1.549,1.027,1.833,1.285,0.529,0.960,0.883,��쓌,2.6,��
2017/08/06,18:20,0.991,1.552,1.030,1.837,1.286,0.529,0.960,0.883,��쓌,3.1,��
2017/08/06,18:30,0.989,1.553,1.027,1.839,1.285,0.529,0.958,0.883,��,3.9,��
2017/08/06,18:40,0.990,1.549,1.028,1.835,1.287,0.528,0.960,0.883,��,2.8,��
2017/08/06,18:50,0.992,1.552,1.029,1.839,1.285,0.530,0.961,0.884,��,2.3,��
2017/08/06,19:00,0.989,1.551,1.028,1.837,1.283,0.530,0.961,0.882,��,2.6,��
2017/08/06,19:10,0.991,1.550,1.030,1.837,1.284,0.529,0.961,0.884,��,2.6,��
2017/08/06,19:20,0.991,1.552,1.026,1.834,1.286,0.530,0.960,0.884,��,3.0,�L
2017/08/06,19:30,0.990,1.551,1.027,1.841,1.286,0.529,0.961,0.882,��쓌,3.1,�L
2017/08/06,19:40,0.991,1.551,1.028,1.837,1.287,0.530,0.961,0.884,��,2.3,�L
2017/08/06,19:50,0.987,1.552,1.026,1.838,1.286,0.528,0.960,0.883,��쓌,2.3,��
2017/08/06,20:00,0.989,1.551,1.027,1.834,1.284,0.528,0.960,0.884,��,2.6,��
2017/08/06,20:10,0.988,1.552,1.028,1.836,1.287,0.529,0.963,0.883,��쓌,3.4,��
2017/08/06,20:20,0.991,1.550,1.027,1.836,1.286,0.528,0.961,0.884,��쓌,3.2,��
2017/08/06,20:30,0.991,1.552,1.027,1.833,1.283,0.529,0.960,0.883,��쓌,2.6,��
2017/08/06,20:40,0.989,1.549,1.026,1.836,1.285,0.530,0.962,0.883,��쓌,2.0,��
2017/08/06,20:50,0.989,1.552,1.027,1.835,1.287,0.528,0.962,0.883,��,1.9,��
2017/08/06,21:00,0.990,1.549,1.031,1.837,1.287,0.527,0.961,0.883,��,3.2,��
2017/08/06,21:10,0.989,1.552,1.025,1.837,1.285,0.529,0.961,0.884,��,3.8,��
2017/08/06,21:20,0.989,1.550,1.028,1.836,1.284,0.529,0.963,0.883,��,3.8,��
2017/08/06,21:30,0.988,1.551,1.025,1.838,1.284,0.529,0.960,0.882,��,4.3,��
2017/08/06,21:40,0.988,1.549,1.029,1.837,1.285,0.530,0.961,0.883,��,2.6,��
2017/08/06,21:50,0.990,1.548,1.027,1.839,1.284,0.529,0.960,0.882,��쓌,3.8,��
2017/08/06,22:00,0.987,1.548,1.027,1.836,1.287,0.530,0.962,0.884,��쓌,4.2,��
2017/08/06,22:10,0.988,1.547,1.027,1.839,1.286,0.529,0.962,0.883,��,4.4,��
2017/08/06,22:20,0.987,1.550,1.027,1.835,1.286,0.528,0.962,0.882,��,4.2,��
2017/08/06,22:30,0.987,1.549,1.027,1.837,1.285,0.528,0.963,0.884,��,4.3,��
2017/08/06,22:40,0.989,1.552,1.028,1.836,1.281,0.528,0.961,0.884,��,4.2,��
2017/08/06,22:50,0.987,1.549,1.030,1.837,1.285,0.529,0.961,0.884,��쓌,4.8,��
2017/08/06,23:00,0.988,1.551,1.028,1.838,1.286,0.528,0.962,0.884,��쓌,4.6,��
2017/08/06,23:10,0.987,1.549,1.027,1.836,1.282,0.527,0.961,0.882,��쓌,5.0,��
2017/08/06,23:20,0.987,1.550,1.026,1.836,1.285,0.528,0.962,0.885,��,3.9,��
2017/08/06,23:30,0.986,1.548,1.029,1.835,1.279,0.527,0.961,0.885,��쓌,3.0,��
2017/08/06,23:40,0.988,1.550,1.027,1.835,1.287,0.526,0.962,0.885,��쓌,1.4,��
2017/08/06,23:50,0.988,1.551,1.029,1.834,1.284,0.529,0.961,0.884,��쓌,2.5,��
